Theta_e
290 291 291 290 289 291 290 291 287 290 291 296 299 301 302 305 305 305 307 310 316 327 326 329 332 336 337 337 336 337 335 334 334 336 337 338 337 337 337 335 335 335 335 335
287 291 290 288 290 291 291 291 291 291 291 299 301 302 301 302 304 304 307 310 316 327 326 328 331 333 334 335 335 335 331 331 334 335 336 337 337 337 335 335 336 335 335 334
283 288 288 285 289 291 292 293 292 289 294 299 299 300 301 303 304 305 309 311 315 328 326 331 331 332 334 334 334 331 329 332 334 335 335 335 335 334 334 335 337 335 335 334
283 285 277 288 295 295 294 295 297 297 299 301 301 302 304 305 305 306 309 312 315 327 331 333 333 333 335 334 331 328 329 332 333 333 333 334 334 334 335 336 335 336 335 333
283 283 287 290 292 290 288 289 297 297 300 302 304 304 304 307 309 310 317 323 325 330 334 333 333 333 334 332 328 328 330 331 332 332 332 332 332 334 336 335 336 336 335 333
286 281 279 289 293 296 293 284 295 297 301 304 303 297 301 309 312 317 319 324 326 331 335 333 334 336 333 328 327 328 330 331 332 332 333 332 333 334 336 336 335 334 332 332
285 283 287 293 296 294 283 288 294 296 298 302 300 304 309 312 313 316 319 321 325 332 332 334 336 335 330 327 327 330 332 332 333 333 334 335 336 335 335 333 334 333 331 329
287 284 282 296 293 286 294 294 295 296 299 301 304 306 310 312 314 317 320 322 327 331 332 334 335 333 329 326 330 332 333 332 333 336 334 334 336 334 334 335 334 332 330 327
286 287 296 297 294 295 296 295 296 298 304 304 304 307 310 313 315 317 323 325 328 330 332 334 334 333 327 328 332 332 332 332 334 335 334 335 334 333 332 333 332 331 327 327
290 295 295 297 298 299 299 298 300 302 303 304 305 308 311 315 316 320 326 326 328 330 332 332 333 330 328 331 333 332 332 333 334 334 333 335 333 333 331 333 331 328 326 326
291 295 297 297 298 300 300 301 300 304 306 308 308 310 312 316 318 323 327 329 330 330 332 332 333 328 330 332 332 332 333 333 334 334 335 334 334 330 332 335 329 330 329 328
290 295 296 296 299 299 298 299 300 302 305 308 312 311 313 313 317 327 329 331 331 333 333 332 330 327 330 332 332 333 333 332 332 332 333 332 331 329 297 300 301 302 301 315
296 301 299 300 299 299 298 300 302 302 303 308 310 312 312 317 326 323 331 330 332 332 332 329 326 327 330 331 333 333 332 332 331 327 330 330 330 330 327 314 296 295 298 297
303 301 298 299 296 298 298 301 302 301 304 305 309 313 316 320 322 324 327 330 332 332 330 328 326 326 329 331 332 333 333 313 331 330 329 329 330 331 332 329 327 325 300 303
302 302 301 301 298 297 299 299 298 299 301 302 306 308 312 313 315 318 324 329 329 328 330 330 329 327 328 330 331 331 332 331 330 331 331 325 328 329 328 331 330 328 317 304
302 302 301 299 297 296 297 297 296 297 299 301 302 303 309 311 312 314 317 321 322 321 324 329 330 331 330 330 330 331 330 314 318 331 332 331 327 327 328 330 331 330 326 324
300 298 299 298 296 296 296 297 297 298 298 299 299 300 304 305 308 309 312 313 312 310 312 314 316 328 330 332 332 328 329 331 309 330 331 330 329 325 328 328 329 328 330 324
304 303 302 300 297 296 296 297 297 298 297 299 299 298 299 300 300 301 305 307 308 305 306 309 310 323 328 332 333 328 328 329 329 329 330 329 329 329 327 326 327 327 330 319
304 303 302 301 298 297 298 296 297 298 299 298 298 296 296 297 299 298 300 298 295 297 299 305 303 312 321 317 314 330 328 329 328 328 329 316 330 330 329 327 326 327 329 326
304 304 303 301 300 298 297 296 297 297 299 298 296 296 295 294 295 296 296 293 293 295 300 300 306 309 315 321 307 332 330 329 328 329 329 330 330 331 331 316 326 327 328 328
304 303 301 300 299 299 298 297 295 295 297 298 295 294 295 295 293 293 293 290 292 292 297 297 300 304 310 314 323 331 332 332 330 330 330 331 331 332 332 331 330 329 329 330
305 303 301 300 300 299 298 297 295 294 294 295 295 295 294 294 295 292 292 290 292 288 294 297 296 291 299 297 314 313 316 318 319 322 326 328 329 328 326 329 330 330 330 330
306 304 302 301 300 300 299 298 295 294 292 292 293 293 292 292 292 290 287 291 292 289 293 293 288 287 289 301 303 304 305 304 305 306 306 309 309 308 308 307 309 311 314 313
306 305 302 302 303 301 298 297 296 294 293 292 292 292 292 292 290 292 291 288 287 289 290 289 290 288 292 297 296 296 298 299 298 299 299 295 300 300 300 300 301 302 302 301
307 305 304 301 301 301 301 300 299 297 295 293 291 291 291 291 290 290 291 291 287 290 292 288 288 289 293 294 293 293 293 294 295 295 295 295 295 295 294 294 293 295 296 295
308 306 305 303 302 302 302 300 298 299 298 295 293 292 291 291 291 291 290 289 290 289 291 290 291 291 291 291 291 291 293 292 292 293 293 293 292 292 292 291 292 292 292 292
308 301 305 302 303 303 302 300 299 298 298 297 295 295 295 293 292 291 289 291 290 290 290 290 291 290 291 291 291 292 291 291 290 292 291 291 291 290 291 291 291 291 290 290
Wind_Speed
17 19 17 16 18 17 20 18 20 18 19 18 18 16 16 17 19 18 16 16 14 5 3 5 9 12 13 14 14 14 14 14 13 12 12 12 11 11 10 10 9 9 8 6
18 17 17 20 20 21 22 22 19 22 25 24 23 22 20 18 16 15 15 15 14 5 5 6 9 13 13 14 14 13 13 13 13 12 12 11 11 11 10 10 9 8 7 6
13 10 10 13 16 18 21 20 18 22 20 19 20 21 18 17 16 16 15 14 13 3 9 10 9 12 14 14 13 13 13 13 12 11 10 10 11 12 11 10 8 7 6 5
8 6 7 1 3 11 15 16 16 19 18 21 22 20 18 15 14 16 16 16 13 3 12 11 12 14 15 15 14 13 13 13 11 10 10 10 11 11 10 8 8 7 5 5
5 8 14 16 2 5 3 12 17 20 20 21 20 18 19 16 16 15 10 16 7 4 13 11 14 14 15 15 14 14 14 12 11 10 10 11 11 11 9 9 8 6 5 5
4 6 5 5 1 9 6 12 14 15 14 18 11 12 9 4 5 9 12 13 10 7 14 13 16 17 16 15 14 14 13 12 10 10 11 11 11 11 9 8 8 6 7 8
10 6 5 4 13 3 5 5 15 14 16 16 10 10 16 15 14 13 12 12 11 10 12 15 17 17 16 15 15 14 13 12 10 9 10 10 10 8 9 9 8 7 9 7
5 5 1 14 12 4 11 15 16 17 18 17 16 16 16 17 15 14 13 10 10 11 13 16 17 17 16 15 15 14 13 12 11 10 8 9 11 9 10 9 9 8 10 7
3 5 15 15 12 14 16 16 18 17 17 16 18 19 18 15 13 13 12 7 10 12 14 16 17 16 16 16 15 13 13 12 11 10 9 10 10 9 7 7 7 8 8 8
8 5 13 14 11 14 7 13 14 19 21 19 20 18 17 15 12 12 11 8 11 12 16 17 17 16 15 16 15 14 13 12 11 11 10 9 7 7 6 7 6 6 7 8
9 12 17 3 12 13 16 11 18 18 15 13 12 16 15 14 12 12 9 10 11 13 15 18 18 16 16 16 15 14 13 11 11 9 8 9 6 3 2 5 3 6 6 6
4 15 11 11 13 17 18 15 20 16 13 8 7 9 10 10 14 14 10 12 13 15 17 18 18 17 17 16 15 14 12 10 9 10 9 8 7 8 14 11 10 10 11 5
5 12 10 13 14 15 16 14 17 13 12 8 7 6 11 13 6 6 11 15 15 16 17 17 18 17 17 16 15 15 12 11 9 8 8 7 8 7 8 6 11 11 10 11
6 10 11 16 15 15 16 14 14 14 13 13 12 8 6 5 7 9 6 14 14 11 15 18 18 18 17 16 15 15 12 8 10 8 8 8 8 8 6 8 9 8 10 7
9 6 10 12 16 19 16 11 14 15 15 15 12 10 9 12 12 10 8 12 11 8 12 15 17 17 16 16 15 15 12 11 9 8 8 7 7 7 9 7 7 9 6 5
11 8 12 15 16 18 19 17 13 16 14 13 13 14 12 13 14 14 15 14 14 11 9 6 10 11 13 15 15 13 12 11 6 8 9 7 7 6 5 9 7 8 8 8
10 12 13 14 15 15 17 15 12 12 13 14 15 15 14 13 13 16 16 16 15 14 12 9 9 2 8 11 12 11 10 10 4 8 9 8 7 6 6 6 5 8 7 10
8 9 10 12 13 12 13 16 14 13 12 12 13 14 14 14 13 13 11 14 15 15 12 11 11 8 6 8 11 9 10 10 9 8 8 7 8 6 7 6 6 6 10 9
8 10 11 12 13 14 13 13 13 13 12 13 13 14 14 12 13 12 12 13 20 14 14 12 11 8 7 4 9 8 8 9 9 7 7 7 5 7 7 6 6 6 10 10
8 9 9 11 14 14 14 13 12 12 14 12 12 12 14 15 13 12 12 16 18 8 9 13 8 10 8 7 5 4 7 8 8 6 4 7 7 6 6 3 6 7 7 10
7 8 10 11 12 12 13 12 12 13 12 14 14 13 12 12 14 14 11 10 15 14 13 14 12 9 9 7 9 7 6 6 5 5 6 3 5 5 4 8 5 5 6 5
6 8 10 10 11 13 13 13 13 12 13 13 13 12 11 12 10 13 15 11 6 11 8 10 10 9 8 8 11 12 11 12 11 10 10 8 7 9 10 8 6 6 6 6
5 7 7 9 10 11 11 12 12 12 13 13 12 10 11 10 10 9 9 14 10 13 9 9 8 9 10 12 11 12 13 13 13 12 11 11 11 11 11 12 12 12 12 11
6 6 6 6 8 9 11 10 11 12 12 13 14 14 10 7 9 9 8 8 8 9 9 6 11 12 12 11 13 12 12 12 13 13 12 13 11 11 11 12 11 11 11 12
6 6 3 5 7 7 7 7 8 11 11 12 13 11 12 10 8 7 7 9 11 8 10 15 19 19 14 14 15 16 15 13 13 14 13 12 11 12 12 13 13 11 11 11
7 4 4 6 7 5 5 6 7 7 8 9 9 9 9 8 7 7 9 10 11 11 12 11 11 12 13 14 15 15 13 13 14 13 13 12 12 12 13 14 12 11 10 10
6 4 5 5 4 4 5 6 6 7 8 8 10 9 8 8 8 8 8 9 9 10 10 10 11 13 12 13 14 14 13 12 14 12 12 12 13 12 12 10 10 9 10 10
Wind_Direction
273 275 276 274 269 262 259 257 266 265 271 271 277 293 308 305 305 308 320 325 349 55 187 248 168 147 137 138 139 138 137 136 135 135 138 141 146 152 147 152 158 160 161 158
286 278 261 262 261 260 256 249 251 258 266 269 280 281 283 288 300 309 314 320 330 92 184 221 160 153 145 143 142 140 140 136 139 142 145 146 151 151 154 153 160 157 157 151
274 286 291 274 265 261 253 249 253 256 264 272 269 269 275 283 291 293 302 307 318 151 189 178 174 156 155 147 149 147 144 142 144 147 149 154 159 154 159 163 161 152 146 133
270 308 243 270 357 333 313 304 287 283 275 267 264 270 276 276 283 288 295 297 297 195 186 168 172 166 153 153 154 153 146 146 149 156 150 155 160 162 159 156 157 152 138 126
262 236 272 274 45 357 318 285 294 281 272 275 275 264 262 264 267 272 307 305 294 216 176 172 170 162 159 160 161 156 150 150 152 149 153 156 165 165 157 154 155 147 126 132
285 269 275 76 349 1 277 267 12 353 311 295 274 238 244 278 336 325 296 298 300 199 170 171 174 166 162 162 162 160 152 149 150 153 158 166 158 157 157 156 156 141 128 91
257 265 256 117 349 356 226 8 326 317 308 302 284 272 299 311 293 289 288 288 287 189 163 175 168 166 170 163 165 160 150 142 146 154 162 158 155 150 158 163 147 139 115 98
293 273 351 350 324 243 334 305 297 294 293 286 292 297 285 280 279 287 283 275 237 187 175 172 166 171 167 168 166 159 149 146 148 153 155 151 149 154 164 162 154 148 128 125
246 300 283 291 289 274 272 275 285 282 281 282 278 268 277 274 280 279 269 237 253 179 171 164 171 173 164 167 166 155 153 149 150 159 147 145 152 154 161 172 171 165 163 130
303 280 314 319 324 307 299 294 300 288 280 270 264 263 270 280 261 260 241 208 228 176 168 167 172 170 163 166 159 159 153 154 156 155 149 152 152 156 171 172 180 186 172 147
285 285 313 321 341 332 323 331 308 306 291 259 246 255 249 258 262 259 235 194 207 174 166 168 170 167 161 160 164 158 152 157 158 148 162 148 129 82 149 133 195 176 162 153
287 304 312 324 346 340 320 324 309 325 324 336 286 269 273 271 265 251 219 183 182 173 167 165 167 165 157 168 163 158 157 164 166 156 161 144 147 134 57 50 46 38 41 38
291 307 324 348 348 335 323 316 317 332 341 345 337 310 275 240 229 218 179 168 167 173 166 162 161 162 163 168 166 161 171 160 148 159 154 153 157 149 143 85 62 47 52 48
345 337 343 348 352 350 336 329 326 354 4 17 11 6 21 86 84 63 91 163 160 167 165 163 160 161 169 166 171 167 172 153 170 155 148 159 166 149 163 163 161 143 57 54
333 356 343 355 0 345 347 341 358 2 12 18 18 16 56 65 72 76 93 96 124 159 166 180 165 162 170 166 173 169 170 176 182 158 155 137 163 174 162 151 151 129 126 89
335 8 2 8 1 347 350 358 6 9 13 8 18 19 37 67 74 73 60 65 83 71 52 106 123 143 171 168 172 169 176 163 192 158 137 163 156 174 168 146 154 135 154 148
359 4 359 3 6 356 351 353 9 10 20 21 24 20 34 54 63 64 72 76 72 59 45 39 7 101 187 166 182 170 175 156 229 168 159 168 156 168 166 169 156 143 146 143
5 3 16 8 4 0 2 356 6 23 21 28 35 30 36 43 49 44 53 69 69 56 34 19 2 330 121 170 190 175 175 157 183 183 162 171 159 162 169 180 166 154 122 139
21 14 16 25 12 1 22 6 6 11 29 27 35 39 33 31 50 41 43 59 57 18 7 2 336 26 36 1 303 180 162 163 181 181 167 134 166 173 163 173 172 163 134 145
27 31 29 30 29 22 21 19 15 24 25 37 42 39 44 37 31 40 48 55 62 346 346 8 13 31 12 23 264 179 159 171 165 169 161 170 174 190 180 146 161 166 152 148
28 37 37 32 47 40 40 38 31 27 28 35 37 37 38 51 44 37 34 41 25 351 11 18 20 32 26 35 51 74 98 98 113 124 131 167 116 152 171 155 173 146 135 151
43 39 37 43 47 47 44 46 41 40 41 45 45 41 36 32 45 50 44 49 24 10 27 27 11 3 21 32 70 74 71 73 65 47 42 56 66 61 42 35 85 101 90 75
58 53 41 51 56 57 53 51 51 51 51 49 44 49 53 49 39 38 38 14 26 16 39 38 341 3 38 61 60 66 68 66 68 64 58 57 63 65 63 55 50 46 52 53
117 76 55 62 67 58 54 54 61 53 56 53 50 45 37 56 51 48 51 33 37 45 51 19 45 57 78 78 70 63 72 71 67 68 66 59 59 63 66 65 61 64 70 68
121 122 109 71 72 69 72 65 77 73 63 62 58 51 51 49 54 49 46 49 40 42 44 30 38 42 47 54 58 56 57 54 62 64 62 64 63 65 66 65 60 52 53 55
159 158 97 51 61 55 58 65 62 59 72 71 70 64 57 56 58 57 55 52 50 49 54 45 50 59 57 60 61 60 59 58 63 62 68 68 67 68 63 63 60 57 58 56
168 127 121 112 109 89 59 65 76 75 72 74 78 76 80 83 85 75 63 60 63 67 64 61 61 61 65 68 69 71 71 70 66 72 68 63 65 63 63 66 65 67 68 58